Location: downtown San Diego
(32.7310°N, 117.1990°W)
Time: 17:56:06
(UTC-07:00)

Meteor 2-9 Rocket - Pass Details

Date: 19 May 2017
Orbit: 791 x 896 km, 81.3° (Epoch: 26 May)

Event Time Altitude Azimuth Distance (km) Brightness Sun altitude
Rises 22:28:26 0° 349° (NNW) 3,328 8.3 -27.9°
Reaches altitude 10° 22:30:49 10° 347° (NNW) 2,406 7.4 -28.2°
Enters shadow 22:36:11 70° 268° (W) 878 4.2 -28.9°
